1998-067UC

Last updated on Mon Aug 15 2022 00:02:04 GMT+0000 (Coordinated Universal Time)

1 53463U 98067UC 22226.74417056 .00032628 00000+0 55523-3 0 9992 2 53463 51.6435 46.4830 0007849 138.2377 332.5144 15.51075903 379
UTC large
Height (km)
Speed (km/s)
/
Latitude / Longitude
Inclination (degrees)
Orbital Period (minutes)
Azimuth
Elevation
Range (km)
Doppler Factor

Next 0 passes for location: London (51.5072 / 0.1276)

Sorry there are no passes over London.